| time (UTC) | temp F | wind direction | speed MPH | gust MPH | rain 1hr in | rain 24hr in | rain mn in | humidity % | barometer mb |
| 20260906230004 | 78 | 60 | 4.0 | 10.0 | 0.00 | 0.01 | 0.00 | 43 | 1023.5 |
| 20260906224935 | 77 | 322 | 3.0 | 10.0 | 0.00 | 0.01 | 0.00 | 43 | 1023.5 |
| 20260906224324 | 77 | 322 | 2.0 | 7.0 | 0.00 | 0.01 | 0.00 | 44 | 1023.7 |
| 20260906223958 | 77 | 72 | 2.0 | 6.0 | 0.00 | 0.01 | 0.00 | 43 | 1023.6 |
| 20260906221932 | 76 | 332 | 1.0 | 5.0 | 0.00 | 0.01 | 0.00 | 44 | 1023.9 |
| 20260906220931 | 76 | 96 | 1.0 | 4.0 | 0.00 | 0.01 | 0.00 | 44 | 1023.9 |
| 20260906215934 | 76 | 36 | 1.0 | 3.0 | 0.00 | 0.01 | 0.00 | 44 | 1024.0 |
| 20260906214924 | 77 | 94 | 1.0 | 4.0 | 0.00 | 0.01 | 0.00 | 42 | 1024.2 |
| 20260906213925 | 77 | 39 | 2.0 | 6.0 | 0.00 | 0.01 | 0.00 | 42 | 1024.4 |
| 20260906213356 | 77 | 39 | 2.0 | 9.0 | 0.00 | 0.01 | 0.00 | 42 | 1024.4 |
| 20260906211924 | 78 | 70 | 2.0 | 7.0 | 0.00 | 0.01 | 0.00 | 40 | 1024.2 |
| 20260906210923 | 80 | 109 | 3.0 | 14.0 | 0.00 | 0.01 | 0.00 | 38 | 1024.2 |
| 20260906205924 | 80 | 12 | 3.0 | 9.0 | 0.00 | 0.01 | 0.00 | 38 | 1024.4 |
| 20260906204924 | 81 | 56 | 2.0 | 9.0 | 0.00 | 0.01 | 0.00 | 36 | 1024.6 |
| 20260906204403 | 80 | 53 | 2.0 | 9.0 | 0.00 | 0.01 | 0.00 | 36 | 1024.9 |
| 20260906203359 | 79 | 86 | 4.0 | 10.0 | 0.00 | 0.01 | 0.00 | 36 | 1024.9 |
| 20260906201922 | 80 | 125 | 3.0 | 8.0 | 0.00 | 0.01 | 0.00 | 38 | 1024.9 |
| 20260906200923 | 79 | 39 | 4.0 | 11.0 | 0.00 | 0.01 | 0.00 | 38 | 1025.1 |
| 20260906195922 | 79 | 155 | 4.0 | 13.0 | 0.00 | 0.01 | 0.00 | 37 | 1025.1 |
| 20260906194920 | 80 | 65 | 2.0 | 9.0 | 0.00 | 0.01 | 0.00 | 36 | 1025.1 |
| 20260906193921 | 79 | 42 | 4.0 | 10.0 | 0.00 | 0.01 | 0.00 | 37 | 1025.1 |
| 20260906193347 | 78 | 75 | 3.0 | 8.0 | 0.00 | 0.01 | 0.00 | 37 | 1025.0 |
| 20260906191853 | 79 | 149 | 4.0 | 13.0 | 0.00 | 0.01 | 0.00 | 37 | 1025.2 |
| 20260906190852 | 79 | 22 | 2.0 | 11.0 | 0.00 | 0.01 | 0.00 | 37 | 1025.4 |
| 20260906185852 | 79 | 47 | 3.0 | 11.0 | 0.00 | 0.01 | 0.00 | 36 | 1025.4 |
| 20260906184852 | 78 | 23 | 4.0 | 9.0 | 0.00 | 0.01 | 0.00 | 37 | 1025.5 |
| 20260906184337 | 78 | 54 | 4.0 | 11.0 | 0.00 | 0.01 | 0.00 | 37 | 1025.8 |
| 20260906182851 | 78 | 15 | 3.0 | 12.0 | 0.00 | 0.01 | 0.00 | 38 | 1025.9 |
| 20260906181850 | 78 | 36 | 3.0 | 8.0 | 0.00 | 0.01 | 0.00 | 38 | 1025.9 |
| 20260906180850 | 77 | 49 | 4.0 | 10.0 | 0.00 | 0.01 | 0.00 | 38 | 1026.1 |
| 20260906175850 | 77 | 84 | 3.0 | 11.0 | 0.00 | 0.01 | 0.00 | 37 | 1026.4 |
| 20260906175328 | 77 | 105 | 3.0 | 8.0 | 0.00 | 0.01 | 0.00 | 38 | 1026.4 |
| 20260906173851 | 77 | 119 | 3.0 | 10.0 | 0.00 | 0.01 | 0.00 | 39 | 1026.6 |
| 20260906172850 | 78 | 51 | 2.0 | 9.0 | 0.00 | 0.01 | 0.00 | 38 | 1026.6 |
| 20260906172333 | 77 | 39 | 3.0 | 11.0 | 0.00 | 0.01 | 0.00 | 38 | 1026.9 |
| 20260906170847 | 78 | 158 | 2.0 | 7.0 | 0.00 | 0.01 | 0.00 | 38 | 1027.0 |
| 20260906170808 | 77 | 116 | 2.0 | 8.0 | 0.00 | 0.01 | 0.00 | 39 | 1027.0 |
| 20260906164848 | 78 | 136 | 1.0 | 4.0 | 0.00 | 0.01 | 0.00 | 37 | 1027.1 |
| 20260906164809 | 78 | 88 | 1.0 | 8.0 | 0.00 | 0.01 | 0.00 | 35 | 1027.1 |
| 20260906162848 | 77 | 129 | 1.0 | 5.0 | 0.00 | 0.01 | 0.00 | 36 | 1027.1 |
| 20260906161848 | 76 | 91 | 2.0 | 6.0 | 0.00 | 0.01 | 0.00 | 37 | 1027.1 |
| 20260906160832 | 76 | 191 | 1.0 | 3.0 | 0.00 | 0.01 | 0.00 | 38 | 1027.1 |
| 20260906155826 | 76 | 136 | 0.0 | 3.0 | 0.00 | 0.01 | 0.00 | 41 | 1027.1 |
| 20260906154826 | 75 | 117 | 1.0 | 3.0 | 0.00 | 0.01 | 0.00 | 40 | 1027.0 |
| 20260906153826 | 73 | 98 | 0.0 | 2.0 | 0.00 | 0.01 | 0.00 | 40 | 1027.1 |
| 20260906152826 | 73 | 23 | 0.0 | 3.0 | 0.00 | 0.01 | 0.00 | 41 | 1027.0 |
| 20260906151828 | 71 | 330 | 1.0 | 3.0 | 0.00 | 0.01 | 0.00 | 44 | 1027.0 |
| 20260906150826 | 70 | 321 | 3.0 | 4.0 | 0.00 | 0.01 | 0.00 | 45 | 1027.1 |
| 20260906150215 | 68 | 312 | 1.0 | 3.0 | 0.00 | 0.01 | 0.00 | 49 | 1027.3 |
| 20260906145841 | 70 | 321 | 0.0 | 7.0 | 0.00 | 0.01 | 0.00 | 45 | 1027.3 |
| 20260906144308 | 67 | 325 | 1.0 | 3.0 | 0.00 | 0.01 | 0.00 | 50 | 1027.1 |
| 20260906142822 | 65 | 314 | 1.0 | 4.0 | 0.00 | 0.01 | 0.00 | 54 | 1027.1 |
| 20260906141822 | 64 | 319 | 2.0 | 7.0 | 0.00 | 0.01 | 0.00 | 56 | 1027.1 |
| 20260906140823 | 63 | 311 | 2.0 | 7.0 | 0.00 | 0.01 | 0.00 | 56 | 1027.0 |
| 20260906135822 | 62 | 334 | 2.0 | 6.0 | 0.00 | 0.01 | 0.00 | 58 | 1027.0 |
| 20260906134822 | 61 | 257 | 1.0 | 4.0 | 0.00 | 0.01 | 0.00 | 60 | 1027.0 |
| 20260906133822 | 59 | 321 | 1.0 | 5.0 | 0.00 | 0.01 | 0.00 | 62 | 1027.0 |
| 20260906132820 | 57 | 269 | 0.0 | 1.0 | 0.00 | 0.01 | 0.00 | 69 | 1026.9 |
| 20260906131820 | 55 | 269 | 0.0 | 1.0 | 0.00 | 0.01 | 0.00 | 72 | 1026.8 |
| 20260906130821 | 54 | 269 | 0.0 | 0.0 | 0.00 | 0.01 | 0.00 | 73 | 1026.8 |
| 20260906125820 | 53 | 268 | 0.0 | 1.0 | 0.00 | 0.01 | 0.00 | 73 | 1026.8 |
| 20260906124819 | 53 | 269 | 0.0 | 1.0 | 0.00 | 0.01 | 0.00 | 73 | 1026.8 |
| 20260906123820 | 53 | 268 | 0.0 | 1.0 | 0.00 | 0.01 | 0.00 | 72 | 1026.6 |
| 20260906122821 | 53 | 269 | 0.0 | 0.0 | 0.00 | 0.01 | 0.00 | 73 | 1026.5 |
| 20260906121819 | 54 | 269 | 0.0 | 1.0 | 0.00 | 0.01 | 0.00 | 71 | 1026.6 |
| 20260906120817 | 54 | 268 | 0.0 | 1.0 | 0.00 | 0.01 | 0.00 | 71 | 1026.6 |
| 20260906120306 | 54 | 269 | 0.0 | 0.0 | 0.00 | 0.01 | 0.00 | 70 | 1026.6 |
| 20260906114818 | 54 | 268 | 0.0 | 1.0 | 0.00 | 0.01 | 0.00 | 71 | 1026.6 |
| 20260906113819 | 54 | 269 | 0.0 | 1.0 | 0.00 | 0.01 | 0.00 | 71 | 1026.6 |
| 20260906113259 | 53 | 269 | 0.0 | 1.0 | 0.00 | 0.01 | 0.00 | 73 | 1026.6 |
| 20260906111818 | 53 | 270 | 0.0 | 1.0 | 0.00 | 0.01 | 0.00 | 75 | 1026.5 |
| 20260906110818 | 53 | 291 | 0.0 | 1.0 | 0.00 | 0.01 | 0.00 | 75 | 1026.5 |
| 20260906110255 | 53 | 332 | 0.0 | 0.0 | 0.00 | 0.01 | 0.00 | 75 | 1026.5 |
| 20260906104814 | 53 | 332 | 0.0 | 0.0 | 0.00 | 0.01 | 0.00 | 74 | 1026.5 |
| 20260906103816 | 53 | 332 | 0.0 | 0.0 | 0.00 | 0.01 | 0.00 | 74 | 1026.5 |
| 20260906102800 | 54 | 331 | 0.0 | 1.0 | 0.00 | 0.01 | 0.00 | 72 | 1026.5 |
| 20260906101800 | 54 | 332 | 0.0 | 1.0 | 0.00 | 0.01 | 0.00 | 72 | 1026.4 |
| 20260906100800 | 54 | 252 | 0.0 | 1.0 | 0.00 | 0.01 | 0.00 | 73 | 1026.5 |
| 20260906095756 | 54 | 272 | 0.0 | 1.0 | 0.00 | 0.01 | 0.00 | 72 | 1026.5 |
| 20260906094756 | 54 | 273 | 0.0 | 1.0 | 0.00 | 0.01 | 0.00 | 74 | 1026.5 |
| 20260906093757 | 53 | 331 | 0.0 | 0.0 | 0.00 | 0.01 | 0.00 | 75 | 1026.8 |
| 20260906092758 | 54 | 332 | 0.0 | 0.0 | 0.00 | 0.01 | 0.00 | 72 | 1026.9 |
| 20260906091754 | 53 | 332 | 0.0 | 1.0 | 0.00 | 0.01 | 0.00 | 73 | 1026.9 |
| 20260906090754 | 54 | 332 | 0.0 | 1.0 | 0.00 | 0.01 | 0.00 | 74 | 1026.8 |
| 20260906085755 | 54 | 205 | 0.0 | 1.0 | 0.00 | 0.01 | 0.00 | 73 | 1026.6 |
| 20260906084754 | 54 | 205 | 0.0 | 1.0 | 0.00 | 0.01 | 0.00 | 71 | 1026.6 |
| 20260906083754 | 55 | 245 | 0.0 | 1.0 | 0.00 | 0.01 | 0.00 | 72 | 1026.5 |
| 20260906082754 | 55 | 245 | 0.0 | 1.0 | 0.00 | 0.01 | 0.00 | 71 | 1026.5 |
| 20260906081754 | 55 | 332 | 0.0 | 0.0 | 0.00 | 0.01 | 0.00 | 73 | 1026.6 |
| 20260906081220 | 56 | 332 | 0.0 | 1.0 | 0.00 | 0.01 | 0.00 | 72 | 1026.6 |
| 20260906080207 | 57 | 332 | 0.0 | 1.0 | 0.00 | 0.01 | 0.00 | 69 | 1026.8 |
| 20260906075209 | 58 | 282 | 0.0 | 1.0 | 0.00 | 0.01 | 0.00 | 66 | 1026.8 |
| 20260906073733 | 59 | 252 | 0.0 | 1.0 | 0.00 | 0.01 | 0.00 | 66 | 1026.8 |
| 20260906072727 | 58 | 263 | 0.0 | 2.0 | 0.00 | 0.01 | 0.00 | 66 | 1026.8 |
| 20260906071725 | 60 | 308 | 0.0 | 1.0 | 0.00 | 0.01 | 0.00 | 64 | 1026.9 |
| 20260906070725 | 60 | 248 | 1.0 | 3.0 | 0.00 | 0.01 | 0.00 | 63 | 1027.0 |
| 20260906065726 | 59 | 255 | 0.0 | 2.0 | 0.00 | 0.01 | 0.00 | 66 | 1026.9 |
| 20260906064726 | 58 | 309 | 1.0 | 5.0 | 0.00 | 0.01 | 0.00 | 69 | 1026.9 |
| 20260906063727 | 58 | 293 | 0.0 | 2.0 | 0.00 | 0.01 | 0.00 | 72 | 1027.0 |
| 20260906062727 | 58 | 308 | 0.0 | 1.0 | 0.00 | 0.01 | 0.00 | 72 | 1027.1 |
| 20260906061726 | 59 | 308 | 1.0 | 4.0 | 0.00 | 0.01 | 0.00 | 72 | 1027.3 |
| 20260906061643 | 59 | 314 | 0.0 | 2.0 | 0.00 | 0.01 | 0.00 | 71 | 1027.1 |
| 20260906055722 | 60 | 302 | 0.0 | 2.0 | 0.00 | 0.01 | 0.01 | 69 | 1027.4 |
| 20260906054722 | 61 | 283 | 2.0 | 5.0 | 0.00 | 0.01 | 0.01 | 66 | 1027.4 |
| 20260906053718 | 60 | 245 | 1.0 | 4.0 | 0.00 | 0.01 | 0.01 | 69 | 1027.6 |
| 20260906052718 | 61 | 248 | 1.0 | 4.0 | 0.01 | 0.01 | 0.01 | 71 | 1027.6 |
| 20260906051720 | 60 | 312 | 0.0 | 1.0 | 0.01 | 0.01 | 0.01 | 77 | 1027.9 |
| 20260906050718 | 60 | 312 | 0.0 | 2.0 | 0.01 | 0.01 | 0.01 | 76 | 1027.9 |
| 20260906045718 | 62 | 325 | 0.0 | 5.0 | 0.01 | 0.01 | 0.01 | 71 | 1027.8 |
| 20260906045156 | 63 | 285 | 1.0 | 4.0 | 0.01 | 0.01 | 0.01 | 67 | 1027.8 |
| 20260906043718 | 67 | 167 | 1.0 | 4.0 | 0.01 | 0.01 | 0.01 | 58 | 1027.9 |
| 20260906042715 | 68 | 208 | 2.0 | 7.0 | 0.00 | 0.00 | 0.00 | 46 | 1027.4 |
| 20260906041714 | 68 | 212 | 2.0 | 6.0 | 0.00 | 0.00 | 0.00 | 48 | 1027.1 |
| 20260906040715 | 69 | 39 | 1.0 | 6.0 | 0.00 | 0.00 | 0.00 | 45 | 1027.1 |
| 20260906035711 | 68 | 305 | 2.0 | 11.0 | 0.00 | 0.00 | 0.00 | 44 | 1027.1 |
| 20260906034710 | 68 | 294 | 5.0 | 11.0 | 0.00 | 0.00 | 0.00 | 46 | 1027.0 |
| 20260906033710 | 68 | 316 | 7.0 | 11.0 | 0.00 | 0.00 | 0.00 | 45 | 1026.8 |
| 20260906032710 | 69 | 326 | 6.0 | 11.0 | 0.00 | 0.00 | 0.00 | 43 | 1026.8 |
| 20260906032134 | 69 | 304 | 4.0 | 9.0 | 0.00 | 0.00 | 0.00 | 41 | 1026.8 |
| 20260906030651 | 70 | 345 | 0.0 | 3.0 | 0.00 | 0.00 | 0.00 | 40 | 1026.5 |
| 20260906030623 | 70 | 319 | 1.0 | 4.0 | 0.00 | 0.00 | 0.00 | 39 | 1026.4 |
| 20260906024650 | 69 | 238 | 2.0 | 6.0 | 0.00 | 0.00 | 0.00 | 40 | 1026.3 |
| 20260906023650 | 69 | 252 | 2.0 | 6.0 | 0.00 | 0.00 | 0.00 | 41 | 1026.1 |
| 20260906022650 | 68 | 279 | 1.0 | 5.0 | 0.00 | 0.00 | 0.00 | 43 | 1026.0 |
| 20260906021648 | 69 | 307 | 3.0 | 7.0 | 0.00 | 0.00 | 0.00 | 41 | 1025.9 |
| 20260906021135 | 70 | 319 | 2.0 | 5.0 | 0.00 | 0.00 | 0.00 | 39 | 1025.8 |
| 20260906015644 | 71 | 302 | 1.0 | 6.0 | 0.00 | 0.00 | 0.00 | 38 | 1025.9 |
| 20260906014644 | 71 | 312 | 1.0 | 4.0 | 0.00 | 0.00 | 0.00 | 38 | 1025.9 |
| 20260906013644 | 72 | 297 | 1.0 | 4.0 | 0.00 | 0.00 | 0.00 | 37 | 1025.8 |
| 20260906012645 | 73 | 268 | 2.0 | 5.0 | 0.00 | 0.00 | 0.00 | 36 | 1025.9 |
| 20260906011645 | 73 | 304 | 2.0 | 5.0 | 0.00 | 0.00 | 0.00 | 35 | 1025.8 |
| 20260906010643 | 74 | 277 | 2.0 | 7.0 | 0.00 | 0.00 | 0.00 | 34 | 1025.9 |
| 20260906005642 | 76 | 257 | 1.0 | 4.0 | 0.00 | 0.00 | 0.00 | 31 | 1025.8 |
| 20260906004642 | 76 | 36 | 0.0 | 4.0 | 0.00 | 0.00 | 0.00 | 30 | 1025.6 |
| 20260906004602 | 76 | 357 | 0.0 | 3.0 | 0.00 | 0.00 | 0.00 | 31 | 1025.6 |
| 20260906002642 | 77 | 36 | 0.0 | 4.0 | 0.00 | 0.00 | 0.00 | 30 | 1025.5 |
| 20260906001640 | 77 | 89 | 0.0 | 5.0 | 0.00 | 0.00 | 0.00 | 30 | 1025.5 |
| 20260906001117 | 78 | 58 | 1.0 | 4.0 | 0.00 | 0.00 | 0.00 | 29 | 1025.5 |
| 20260905235641 | 78 | 52 | 1.0 | 6.0 | 0.00 | 0.00 | 0.00 | 28 | 1025.4 |
| 20260905235138 | 79 | 106 | 1.0 | 6.0 | 0.00 | 0.00 | 0.00 | 28 | 1025.4 |
| 20260905233641 | 79 | 25 | 1.0 | 5.0 | 0.00 | 0.00 | 0.00 | 29 | 1025.2 |
| 20260905232641 | 79 | 143 | 1.0 | 5.0 | 0.00 | 0.00 | 0.00 | 29 | 1025.2 |
| 20260905231640 | 79 | 44 | 1.0 | 5.0 | 0.00 | 0.00 | 0.00 | 28 | 1025.2 |
| 20260905230639 | 79 | 322 | 1.0 | 4.0 | 0.00 | 0.00 | 0.00 | 28 | 1025.2 |